N7DTY Weather Reports


time (UTC)temp
C
wind
direction
speed
KPH
gust
KPH
rain 1hr
cm
rain 24hr
cm
rain mn
cm
humidity
%
barometer
mb
20260506011609 15 134 4.8 12.9 0.00 0.00 0.00 80 1013.8
20260506010058 15 232 3.2 12.9 0.00 0.00 0.00 78 1013.8
20260506004557 15 168 4.8 16.1 0.00 0.00 0.00 79 1013.9
20260506003058 15 241 6.4 16.1 0.00 0.00 0.00 79 1013.9
20260506001557 15 191 6.4 16.1 0.00 0.00 0.00 78 1014.0
20260506000053 15 184 6.4 14.5 0.00 0.00 0.00 79 1014.2
20260505234552 15 195 4.8 16.1 0.00 0.00 0.00 79 1014.2
20260505233051 15 194 6.4 19.3 0.00 0.00 0.00 79 1014.4
20260505231550 15 176 8.0 16.1 0.00 0.00 0.00 78 1014.5
20260505230101 15 158 8.0 19.3 0.00 0.00 0.00 78 1014.6
20260505224548 15 198 8.0 17.7 0.00 0.00 0.00 78 1014.8
20260505223056 16 197 6.4 20.9 0.00 0.00 0.00 76 1014.9
20260505221548 16 177 6.4 19.3 0.00 0.00 0.00 77 1014.9
20260505220046 16 214 9.7 27.4 0.00 0.00 0.00 77 1015.0
20260505214546 16 191 8.0 14.5 0.00 0.00 0.00 77 1015.1
20260505213054 15 134 4.8 16.1 0.00 0.00 0.00 78 1015.1
20260505211545 16 163 4.8 12.9 0.00 0.00 0.00 76 1015.2
20260505210043 16 184 6.4 16.1 0.00 0.00 0.00 77 1015.3
20260505204543 16 163 8.0 17.7 0.00 0.00 0.00 77 1015.4
20260505203047 16 333 4.8 14.5 0.00 0.00 0.00 77 1015.4
20260505201542 15 170 6.4 19.3 0.00 0.00 0.00 77 1015.4
20260505200041 16 206 4.8 16.1 0.00 0.00 0.00 78 1015.3
20260505194543 15 184 6.4 16.1 0.00 0.00 0.00 78 1015.4
20260505193039 15 181 6.4 16.1 0.00 0.00 0.00 79 1015.3
20260505191538 15 199 4.8 16.1 0.00 0.00 0.00 79 1015.4
20260505190038 15 191 4.8 12.9 0.00 0.00 0.00 80 1015.3
20260505184534 14 146 3.2 11.3 0.00 0.00 0.00 82 1015.3
20260505183032 14 153 4.8 11.3 0.00 0.00 0.00 82 1015.4
20260505181531 14 141 3.2 9.7 0.00 0.00 0.00 83 1015.3
20260505180029 13 193 4.8 14.5 0.00 0.00 0.00 84 1015.2
20260505174529 13 176 3.2 12.9 0.00 0.00 0.00 85 1015.2
20260505173039 13 167 3.2 12.9 0.00 0.00 0.00 86 1015.2
20260505171526 13 98 3.2 12.9 0.00 0.00 0.00 86 1015.3
20260505170026 13 214 3.2 9.7 0.00 0.00 0.00 86 1015.3
20260505164543 12 177 4.8 12.9 0.00 0.00 0.00 87 1015.2
20260505163018 12 182 4.8 14.5 0.00 0.00 0.00 87 1015.1
20260505161515 12 197 3.2 12.9 0.00 0.00 0.00 88 1015.3
20260505153011 12 187 6.4 22.5 0.00 0.00 0.00 87 1015.1
20260505151508 12 157 6.4 25.7 0.00 0.00 0.00 88 1014.9
20260505140106 11 163 4.8 11.3 0.00 0.00 0.00 88 1014.0
20260505124543 12 186 6.4 12.9 0.00 0.00 0.00 87 1013.2
20260505123040 12 182 6.4 16.1 0.00 0.00 0.00 87 1013.0
20260505121538 12 154 6.4 14.5 0.00 0.00 0.00 87 1012.9
20260505120038 12 186 8.0 22.5 0.00 0.00 0.00 86 1012.8
20260505114538 12 180 6.4 17.7 0.00 0.00 0.00 86 1012.7
20260505113031 12 194 6.4 16.1 0.00 0.00 0.00 86 1012.5
20260505111534 12 190 6.4 17.7 0.00 0.00 0.00 86 1012.3
20260505101520 12 170 8.0 19.3 0.00 0.00 0.00 83 1011.8
20260505100018 12 179 8.0 20.9 0.00 0.00 0.00 83 1011.7
20260505094515 12 178 9.7 22.5 0.00 0.00 0.00 81 1011.7
20260505093013 13 213 6.4 20.9 0.00 0.00 0.00 79 1011.7
20260505091510 13 200 4.8 20.9 0.00 0.00 0.00 77 1011.4
20260505090009 14 190 6.4 19.3 0.00 0.00 0.00 73 1011.2
20260505084507 14 178 6.4 22.5 0.00 0.00 0.00 70 1011.2
20260505083005 13 171 3.2 12.9 0.00 0.00 0.00 74 1011.0
20260505081503 13 186 3.2 11.3 0.00 0.00 0.00 78 1010.9
20260505074610 13 173 4.8 25.7 0.00 0.00 0.00 79 1010.5
20260505073056 13 184 4.8 16.1 0.00 0.00 0.00 77 1010.4
20260505071553 13 187 8.0 19.3 0.00 0.00 0.00 78 1010.2
20260505070052 13 216 4.8 14.5 0.00 0.00 0.00 77 1009.9
20260505064548 14 227 4.8 17.7 0.00 0.00 0.00 76 1009.9
20260505063055 14 161 6.4 20.9 0.00 0.00 0.00 76 1009.8
20260505061615 14 192 4.8 12.9 0.00 0.00 0.00 76 1009.7
20260505060052 14 225 3.2 12.9 0.00 0.00 0.00 77 1009.6
20260505054559 15 163 3.2 16.1 0.00 0.00 0.00 76 1009.4
20260505053046 15 173 4.8 16.1 0.00 0.00 0.00 76 1009.4
20260505051546 15 174 4.8 17.7 0.00 0.00 0.00 77 1009.2
20260505041543 15 201 6.4 16.1 0.00 0.00 0.00 79 1008.8
20260505040043 15 311 0.0 4.8 0.00 0.00 0.00 80 1008.5
20260505034545 16 185 0.0 4.8 0.00 0.00 0.00 77 1008.4
20260505033049 16 13 0.0 6.4 0.00 0.00 0.00 76 1008.3
20260505031541 17 291 0.0 4.8 0.00 0.00 0.00 72 1008.1
20260505030043 18 180 1.6 3.2 0.00 0.00 0.00 65 1008.0
20260505024603 18 235 3.2 9.7 0.00 0.00 0.00 61 1008.1
20260505023041 19 182 3.2 11.3 0.00 0.00 0.00 55 1008.1
20260505021549 19 173 3.2 14.5 0.00 0.00 0.00 54 1008.3
20260505020044 19 145 3.2 11.3 0.00 0.00 0.00 55 1008.3
20260505014535 19 146 3.2 12.9 0.00 0.00 0.00 57 1008.4
20260505013033 20 108 4.8 14.5 0.00 0.00 0.00 55 1008.5